Grand Forks AFB, ND

10:51 AM CST on December 15, 2017 (GMT -0600)
Grand Forks Air Force Base

Weather History for KRDR - May, 2013

Change the Weather History Date:

Thursday, May 30, 2013

  Actual Average Record
Temperature  
Mean Temperature 68 °F -  
Max Temperature 76 °F 69 °F 87 °F (2002)
Min Temperature 60 °F 46 °F 28 °F (2015)
Cooling Degree Days 2    
Growing Degree Days 18 (Base 50)    
Moisture  
Dew Point 64 °F    
Average Humidity 96    
Maximum Humidity 100    
Minimum Humidity 63    
Precipitation  
Precipitation 1.07 in - - ()
Sea Level Pressure  
Sea Level Pressure 29.47 in    
Wind  
Wind Speed 11 mph (East)    
Max Wind Speed 20 mph    
Max Gust Speed 26 mph    
Visibility 9 miles    
Events Rain    
Averages and records for this station are not official NWS values.
T = Trace of Precipitation, MM = Missing Value Source: NWS Daily Summary

Daily Weather History Graph

Daily Weather History Graph

Search for Another Location

Airport or City:

Trip Planner

Search our weather history database for the weather conditions in past years. The results will help you decide how hot, cold, wet, or windy it might be!

Date:

Astronomy

May. 30, 2013 Rise Set
Actual Time 5:35 AM CDT 9:19 PM CDT
Civil Twilight 4:56 AM CDT 9:58 PM CDT
Nautical Twilight 4:02 AM CDT 10:52 PM CDT
Astronomical Twilight 2:46 AM CDT 12:10 AM CDT
Moon 1:04 AM CDT (5/30) 12:04 PM CDT (5/30)
Length of Visible Light 17h 02m
Length of Day
15h 43m
Waning Gibbous, 62% of the Moon is Illuminated
May 30
Waning Gibbous
May 31
Last Quarter
Jun 8
New
Jun 16
First Quarter
Jun 23
Full

Hourly Weather History & Observations

Time (CDT) Temp. Dew Point Humidity Pressure Visibility Wind Dir Wind Speed Gust Speed Precip Events Conditions
12:58 AM 62.8 °F 58.1 °F 85% 29.64 in 10.0 mi North 5.8 mph - N/A   Overcast
1:28 AM 62.6 °F 57.2 °F 82% 29.63 in 10.0 mi NE 6.9 mph - N/A   Overcast
1:58 AM 63.3 °F 58.1 °F 83% 29.63 in 10.0 mi NE 6.9 mph - N/A   Overcast
2:58 AM 62.4 °F 58.3 °F 86% 29.60 in 10.0 mi NE 10.4 mph - N/A   Mostly Cloudy
3:00 AM 62.6 °F 59.0 °F 88% 29.58 in 10.0 mi NE 9.2 mph - N/A   Light Drizzle
3:36 AM 60.8 °F 59.0 °F 94% 29.55 in 10.0 mi NE 13.8 mph - N/A   Overcast
3:56 AM 60.8 °F 59.0 °F 94% 29.54 in 10.0 mi NE 11.5 mph - N/A   Mostly Cloudy
3:58 AM 61.3 °F 59.0 °F 92% 29.55 in 10.0 mi NE 12.7 mph - 0.00 in   Mostly Cloudy
4:13 AM 60.8 °F 59.0 °F 94% 29.53 in 10.0 mi NE 13.8 mph - N/A   Mostly Cloudy
4:28 AM 60.8 °F 59.0 °F 94% 29.52 in 10.0 mi NE 12.7 mph - N/A   Overcast
4:48 AM 60.8 °F 59.0 °F 94% 29.55 in 10.0 mi ENE 13.8 mph - N/A   Overcast
4:58 AM 61.0 °F 59.7 °F 96% 29.57 in 10.0 mi ENE 11.5 mph - N/A   Overcast
4:59 AM 60.8 °F 59.0 °F 94% 29.56 in 10.0 mi ENE 11.5 mph - N/A   Overcast
5:06 AM 60.8 °F 60.8 °F 100% 29.55 in 10.0 mi ENE 9.2 mph - N/A   Light Drizzle
5:36 AM 60.8 °F 60.8 °F 100% 29.54 in 10.0 mi ENE 12.7 mph - N/A   Light Drizzle
5:37 AM 60.8 °F 60.8 °F 100% 29.54 in 10.0 mi ENE 11.5 mph - N/A   Overcast
5:58 AM 60.3 °F 59.9 °F 99% 29.54 in 10.0 mi NE 10.4 mph - 0.00 in   Overcast
6:21 AM 60.8 °F 60.8 °F 100% 29.52 in 10.0 mi NE 11.5 mph - N/A Rain Light Rain
6:41 AM 60.8 °F 60.8 °F 100% 29.53 in 1.2 mi ENE 8.1 mph - N/A Rain Light Rain
6:46 AM 60.8 °F 60.8 °F 100% 29.52 in 2.0 mi NE 10.4 mph - N/A Rain Light Rain
6:51 AM 60.8 °F 60.8 °F 100% 29.52 in 7.0 mi NE 9.2 mph - N/A Rain Rain
6:56 AM 60.8 °F 60.8 °F 100% 29.52 in 9.0 mi NE 9.2 mph - N/A Rain Rain
6:58 AM 60.4 °F 60.1 °F 99% 29.53 in 9.0 mi NE 10.4 mph - 0.21 in Rain Rain
7:03 AM 60.8 °F 60.8 °F 100% 29.52 in 7.0 mi ENE 9.2 mph - N/A Rain Light Rain
7:08 AM 60.8 °F 60.8 °F 100% 29.52 in 10.0 mi NE 9.2 mph - N/A   Light Drizzle
7:28 AM 60.8 °F 60.8 °F 100% 29.51 in 4.0 mi ENE 9.2 mph - N/A Rain Light Rain
7:38 AM 60.8 °F 60.8 °F 100% 29.51 in 4.0 mi ENE 8.1 mph - N/A Rain Light Rain
7:58 AM 61.2 °F 61.2 °F 100% 29.51 in 6.0 mi ENE 8.1 mph - 0.08 in Rain Light Rain
8:33 AM 62.6 °F 62.6 °F 100% 29.49 in 2.0 mi East 11.5 mph - N/A Rain Light Rain
8:38 AM 62.6 °F 62.6 °F 100% 29.49 in 1.5 mi East 10.4 mph - N/A Rain Rain
8:53 AM 62.6 °F 62.6 °F 100% 29.49 in 2.5 mi East 10.4 mph - N/A Rain Light Rain
8:57 AM 62.6 °F 62.6 °F 100% 29.49 in 4.0 mi East 10.4 mph - N/A   Overcast
8:58 AM 62.6 °F 62.6 °F 100% 29.50 in 5.0 mi East 10.4 mph - 0.18 in   Overcast
9:33 AM 64.4 °F 64.4 °F 100% 29.48 in 10.0 mi East 10.4 mph - N/A   Overcast
9:38 AM 64.4 °F 64.4 °F 100% 29.47 in 10.0 mi East 11.5 mph - N/A   Overcast
9:58 AM 65.5 °F 65.5 °F 100% 29.48 in 10.0 mi East 13.8 mph - 0.00 in   Overcast
10:03 AM 66.2 °F 66.2 °F 100% 29.47 in 10.0 mi East 15.0 mph - N/A   Overcast
10:43 AM 68.0 °F 68.0 °F 100% 29.46 in 10.0 mi East 12.7 mph - N/A   Overcast
10:48 AM 68.0 °F 68.0 °F 100% 29.46 in 10.0 mi East 12.7 mph - N/A   Overcast
10:50 AM 68.0 °F 66.2 °F 94% 29.46 in 10.0 mi East 11.5 mph - N/A   Overcast
10:58 AM 67.3 °F 66.9 °F 99% 29.46 in 10.0 mi East 13.8 mph - N/A   Overcast
11:18 AM 68.0 °F 68.0 °F 100% 29.45 in 10.0 mi East 15.0 mph 20.7 mph N/A   Overcast
11:24 AM 68.0 °F 66.2 °F 94% 29.45 in 10.0 mi East 12.7 mph 20.7 mph N/A   Overcast
11:29 AM 68.0 °F 66.2 °F 94% 29.45 in 10.0 mi East 13.8 mph - N/A   Overcast
11:46 AM 68.0 °F 66.2 °F 94% 29.44 in 10.0 mi East 13.8 mph - N/A   Light Drizzle
11:58 AM 67.1 °F 66.9 °F 99% 29.45 in 10.0 mi East 13.8 mph - 0.08 in Rain Light Rain
12:01 PM 68.0 °F 68.0 °F 100% 29.44 in 10.0 mi East 16.1 mph - N/A   Overcast
12:16 PM 68.0 °F 68.0 °F 100% 29.45 in 10.0 mi East 18.4 mph 21.9 mph N/A   Overcast
12:26 PM 68.0 °F 66.2 °F 94% 29.45 in 8.0 mi East 16.1 mph 21.9 mph N/A   Overcast
12:41 PM 68.0 °F 68.0 °F 100% 29.44 in 10.0 mi East 16.1 mph - N/A   Overcast
12:46 PM 68.0 °F 68.0 °F 100% 29.44 in 10.0 mi East 19.6 mph 26.5 mph N/A   Overcast
12:51 PM 68.0 °F 68.0 °F 100% 29.44 in 10.0 mi East 15.0 mph 26.5 mph N/A   Overcast
12:55 PM 68.0 °F 68.0 °F 100% 29.44 in 10.0 mi East 13.8 mph - N/A   Light Drizzle
12:58 PM 67.6 °F 67.5 °F 99% 29.45 in 9.0 mi East 15.0 mph - 0.01 in   Light Drizzle
1:03 PM 66.2 °F 66.2 °F 100% 29.44 in 3.0 mi East 11.5 mph - N/A Rain Light Rain
1:18 PM 66.2 °F 66.2 °F 100% 29.44 in 10.0 mi East 16.1 mph 23.0 mph N/A   Overcast
1:33 PM 68.0 °F 68.0 °F 100% 29.43 in 10.0 mi East 17.3 mph - N/A   Overcast
1:38 PM 69.8 °F 68.0 °F 94% 29.43 in 10.0 mi East 19.6 mph 24.2 mph N/A   Overcast
1:43 PM 69.8 °F 69.8 °F 100% 29.43 in 10.0 mi East 16.1 mph 24.2 mph N/A   Overcast
1:48 PM 69.8 °F 69.8 °F 100% 29.43 in 10.0 mi East 15.0 mph 24.2 mph N/A   Overcast
1:53 PM 69.8 °F 69.8 °F 100% 29.43 in 9.0 mi East 15.0 mph - N/A   Overcast
1:58 PM 70.5 °F 69.8 °F 98% 29.44 in 9.0 mi East 16.1 mph - 0.07 in   Overcast
1:59 PM 69.8 °F 69.8 °F 100% 29.43 in 9.0 mi East 17.3 mph 24.2 mph N/A   Overcast
2:04 PM 69.8 °F 68.0 °F 94% 29.43 in 10.0 mi East 16.1 mph 24.2 mph N/A   Overcast
2:05 PM 69.8 °F 68.0 °F 94% 29.43 in 10.0 mi East 16.1 mph 24.2 mph N/A   Overcast
2:15 PM 69.8 °F 68.0 °F 94% 29.42 in 10.0 mi East 15.0 mph - N/A   Light Drizzle
2:20 PM 69.8 °F 68.0 °F 94% 29.42 in 10.0 mi East 11.5 mph - N/A   Light Drizzle
2:25 PM 68.0 °F 68.0 °F 100% 29.43 in 10.0 mi East 11.5 mph - N/A   Light Drizzle
2:33 PM 68.0 °F 68.0 °F 100% 29.43 in 10.0 mi East 11.5 mph - N/A   Overcast
2:36 PM 69.8 °F 68.0 °F 94% 29.43 in 10.0 mi East 12.7 mph - N/A   Light Drizzle
2:41 PM 69.8 °F 68.0 °F 94% 29.43 in 10.0 mi East 12.7 mph - N/A   Light Drizzle
2:46 PM 68.0 °F 68.0 °F 100% 29.43 in 2.5 mi ESE 16.1 mph 20.7 mph N/A Rain Rain
2:51 PM 68.0 °F 66.2 °F 94% 29.43 in 1.0 mi SE 10.4 mph 20.7 mph N/A Rain Rain
2:56 PM 68.0 °F 68.0 °F 100% 29.43 in 1.2 mi ESE 9.2 mph 20.7 mph N/A Rain Light Rain
2:57 PM 68.0 °F 68.0 °F 100% 29.43 in 1.5 mi ESE 10.4 mph - N/A   Overcast
2:58 PM 68.0 °F 68.0 °F 100% 29.44 in 1.8 mi ESE 10.4 mph - 0.18 in   Overcast
3:03 PM 68.0 °F 68.0 °F 100% 29.43 in 6.0 mi SE 9.2 mph - N/A   Overcast
3:08 PM 68.0 °F 68.0 °F 100% 29.43 in 10.0 mi South 13.8 mph - N/A   Overcast
3:13 PM 68.0 °F 68.0 °F 100% 29.43 in 10.0 mi SSE 10.4 mph - N/A   Overcast
3:18 PM 69.8 °F 68.0 °F 94% 29.43 in 10.0 mi SSE 9.2 mph - N/A   Overcast
3:58 PM 71.8 °F 66.2 °F 83% 29.44 in 10.0 mi SSE 12.7 mph - 0.00 in   Overcast
4:58 PM 74.3 °F 66.4 °F 76% 29.42 in 10.0 mi SE 11.5 mph - N/A   Partly Cloudy
5:58 PM 75.2 °F 62.2 °F 64% 29.42 in 10.0 mi SSE 10.4 mph - N/A   Partly Cloudy
6:58 PM 75.7 °F 62.2 °F 63% 29.42 in 10.0 mi ESE 15.0 mph - N/A   Scattered Clouds
7:39 PM 75.2 °F 64.4 °F 69% 29.43 in 10.0 mi East 8.1 mph - N/A Rain Light Rain
7:58 PM 68.2 °F 64.6 °F 88% 29.44 in 6.0 mi SSE 12.7 mph - 0.23 in Rain Light Rain
8:02 PM 68.0 °F 62.6 °F 83% 29.43 in 6.0 mi SSE 11.5 mph - N/A   Haze
8:06 PM 68.0 °F 64.4 °F 88% 29.43 in 9.0 mi SSE 8.1 mph - N/A   Light Drizzle
8:17 PM 66.2 °F 64.4 °F 94% 29.43 in 10.0 mi South 6.9 mph - N/A   Overcast
8:41 PM 66.2 °F 64.4 °F 94% 29.43 in 10.0 mi SSE 13.8 mph - N/A Rain Light Rain
8:51 PM 66.2 °F 64.4 °F 94% 29.44 in 10.0 mi SE 9.2 mph - N/A   Overcast
8:57 PM 66.2 °F 62.6 °F 88% 29.44 in 10.0 mi SSE 13.8 mph - N/A   Light Drizzle
8:58 PM 66.2 °F 62.6 °F 88% 29.45 in 10.0 mi SSE 12.7 mph - 0.01 in   Light Drizzle
9:12 PM 64.4 °F 64.4 °F 100% 29.44 in 10.0 mi SE 9.2 mph - N/A   Overcast
9:58 PM 64.6 °F 64.2 °F 99% 29.46 in 10.0 mi ESE 5.8 mph - 0.01 in   Mostly Cloudy
10:04 PM 64.4 °F 64.4 °F 100% 29.46 in 10.0 mi ESE 6.9 mph - N/A   Light Drizzle
10:16 PM 64.4 °F 64.4 °F 100% 29.46 in 10.0 mi ESE 8.1 mph - N/A   Mostly Cloudy
10:58 PM 64.8 °F 64.6 °F 99% 29.46 in 10.0 mi East 8.1 mph - 0.01 in   Overcast
11:58 PM 64.9 °F 64.6 °F 99% 29.45 in 10.0 mi ESE 8.1 mph - N/A   Overcast
11:59 PM 64.4 °F 64.4 °F 100% 29.44 in 10.0 mi ESE 8.1 mph - N/A   Light Drizzle